Flag for Canada Weather past 2 weeks in Kelowna, British Columbia, Canada

Now
50 °F

Passing clouds.


Feels Like: 50 °F
Forecast: 43 / 71 °F
Wind: 2 mph from East

Location: Kelowna Airport

Current Time: Sep 5, 2015 at 9:58:29 AM

Latest Report: Sep 5, 2015 at 9:00 AM


Visibility: 9 mi

Pressure: 29.99 "Hg

Humidity: 76%

Dew point: 43 °F

Location of KelownaLocation

Historic Weather in Kelowna — Graph

°F

Kelowna temperature yesterday

Maximum temperature yesterday: 66 °F (at 3:00 PM)
Minimum temperature yesterday: 41 °F (at 7:00 AM)
Average temperature yesterday: 55 °F

Past Weeks' High & Low Weather Summary

 TemperatureHumidityPressure
High86 °F (Aug 27, 1:00 PM)100% (Sep 2, 5:00 AM)30.22 "Hg (Sep 2, 5:00 AM)
Low41 °F (Aug 22, 5:00 AM)13% (Aug 27, 5:00 PM)29.47 "Hg (Aug 29, 10:00 AM)
Average62 °F57%29.88 "Hg
* Reported Aug 21 8:00 AM — Sep 5 8:00 AM, Kelowna, Weather by CustomWeather, © 2015

Note: Actual official high and low records may vary slightly from our data, if they occured in-between our weather recording intervals... More about our weather records

Advertising

Kelowna weather history for previous 24 hours

 ConditionsComfort  
Time TempWeatherWind HumidityBarometerVisibility
8:00 AM
Sat, Sep 5
46 °FPassing clouds.No wind87%29.99 "Hg9 mi
7:00 AM43 °FPassing clouds.2 mph87%29.98 "Hg9 mi
6:00 AM43 °FOvercast.3 mph87%29.98 "Hg9 mi
5:00 AM43 °FPassing clouds.3 mph87%29.98 "Hg9 mi
4:00 AM43 °FClear.No wind87%29.98 "Hg9 mi
3:00 AM43 °FClear.No wind87%29.97 "Hg9 mi
2:00 AM43 °FClear.2 mph87%29.97 "Hg9 mi
1:00 AM45 °FOvercast.3 mph81%29.99 "Hg9 mi
12:00 AM45 °FClear.2 mph81%29.98 "Hg9 mi
11:00 PM
Fri, Sep 4
48 °FPassing clouds.3 mph71%29.97 "Hg9 mi
10:00 PM50 °FClear.No wind71%29.96 "Hg9 mi
9:00 PM55 °FPassing clouds.2 mph63%29.96 "Hg9 mi
8:00 PM59 °FPartly sunny.5 mph51%29.96 "Hg9 mi
7:00 PM63 °FSunny.13 mph39%29.95 "Hg9 mi
6:00 PM66 °FPassing clouds.17 mph37%29.94 "Hg9 mi
5:00 PM66 °FSunny.18 mph32%29.94 "Hg9 mi
4:00 PM66 °FSunny.16 mph35%29.95 "Hg9 mi
3:00 PM66 °FScattered clouds.14 mph37%29.96 "Hg9 mi
2:00 PM64 °FPartly sunny.12 mph40%29.99 "Hg9 mi
1:00 PM63 °FSunny.16 mph42%30.01 "Hg9 mi
12:00 PM59 °FSunny.15 mph51%30.03 "Hg9 mi
11:00 AM59 °FSunny.18 mph51%30.04 "Hg9 mi
10:00 AM55 °FSunny.12 mph63%30.06 "Hg9 mi
9:00 AM54 °FSunny.10 mph63%30.06 "Hg9 mi
Weather by CustomWeather, © 2015

See weather overviewHow to use our weather pages